Location: Carrières
(48.9495°N, 2.0407°E)
Time: 02:11:51
(UTC+00:00)

Transit 2A - Pass Details

Date: 25 April 2024
Orbit: 594 x 957 km, 66.7° (Epoch: 19 May)

Event Time Altitude Azimuth Distance (km) Brightness Sun altitude
Rises 05:17:27 0° 210° (SSW) 2,849 8.5 4.8°
Reaches altitude 10° 05:19:37 10° 209° (SSW) 1,973 7.8 5.2°
Maximum altitude 05:24:02 78° 123° (ESE) 666 6.0 5.9°
Drops below altitude 10° 05:28:52 10° 38° (NE) 2,153 9.3 6.7°
Sets 05:31:19 0° 37° (NE) 3,133 10.0 7.1°
